カタログに戻る

FENGYUN 1C DEB

運用中SSO
NORAD 36668·DEBRIS·🇨🇳 China

打ち上げ May 10, 1999 から Taiyuan Satellite Launch Center

Loading…

次のパス (今後24時間)

TLE

最新Source: Space-Track

元期: Sep 12, 2026, 18:24 UTC

1 36668U 99025DYN 26255.76732407  .00000665  00000-0  35411-3 0  9994
2 36668  98.6076 261.8452 0051963 158.5329 201.8041 14.15993585612951

AllMySatでFENGYUN 1C DEBをリアルタイム追跡

Download on the App Store